User: anonymous   Login
Location: Presov
(49.0000°N, 21.2500°E)
Time: 01:41:56
(UTC+02:00)
Language:

deb Explorer IX - Orbit

View from above orbital plane
View from above orbital plane
View from above satellite
View from above satellite

Ground track
Ground track

The orbit data is extracted from the following two-line orbital elements,

1    85U 61004C   21107.49866022 -.00000913  00000-0 -16650-3 0  9998
2    85  38.7781 268.5868 0388579   6.5111 354.0493 14.21631596974349
Epoch (UTC): 17 April 2021 11:58:04
Eccentricity: 0.0388579
inclination: 38.7781°
perigee height: 540 km
apogee height: 1099 km
right ascension of ascending node: 268.5868°
argument of perigee: 6.5111°
revolutions per day: 14.21631596
mean anomaly at epoch: 354.0493°
orbit number at epoch: 97434

The dashed part of the orbit path shows where the satellite is in the earth's shadow,  

DLR